Location: Unspecified
(49.8670°N, 0.0000°E)
Time: 01:07:07
(UTC+00:00)

Vanguard 1 - Pass Details

Date: 28 June 2019
Orbit: 653 x 3830 km, 34.3° (Epoch: 20 July)

Event Time Altitude Azimuth Distance (km) Brightness Sun altitude
Rises 05:31:03 0° 268° (W) 7,027 13.8 12.7°
Reaches altitude 10° 05:37:09 10° 260° (W) 5,480 13.3 13.6°
Maximum altitude 05:48:36 28° 210° (SSW) 3,038 12.3 15.3°
Drops below altitude 10° 05:55:51 10° 154° (SSE) 3,380 13.0 16.5°
Sets 05:58:37 0° 142° (SE) 4,016 13.5 16.9°
